Change the Weather History Date:

Tuesday, September 25, 2012

  Actual Average Record
Temperature  
Mean Temperature 67 °F 64 °F  
Max Temperature 80 °F 79 °F 89 °F (2010)
Min Temperature 54 °F 50 °F 37 °F (2000)
Degree Days  
Heating Degree Days 0    
Month to date heating degree days  
Since 1 July heating degree days  
Cooling Degree Days 2    
Month to date cooling degree days  
Year to date cooling degree days  
Growing Degree Days 17 (Base 50)    
Moisture  
Dew Point 34 °F    
Average Humidity 34    
Maximum Humidity 53    
Minimum Humidity 17    
Precipitation  
Precipitation 0.00 in 0.04 in 0.53 in (1964)
Month to date precipitation 1.30  
Year to date precipitation 10.96  
Sea Level Pressure  
Sea Level Pressure 29.85 in    
Wind  
Wind Speed 5 mph (SSW)    
Max Wind Speed 15 mph    
Max Gust Speed 25 mph    
Visibility 10 miles    
Events      
T = Trace of Precipitation, MM = Missing Value Source: NWS Daily Summary

Daily Weather History Graph

Daily Weather History Graph

Search for Another Location

Airport or City:

Trip Planner

Search our weather history database for the weather conditions in past years. The results will help you decide how hot, cold, wet, or windy it might be!

Date:

Astronomy

Sep. 25, 2012 Rise Set
Actual Time 6:20 AM MST 6:21 PM MST
Civil Twilight 5:55 AM MST 6:46 PM MST
Nautical Twilight 5:25 AM MST 7:15 PM MST
Astronomical Twilight 4:56 AM MST 7:45 PM MST
Moon 3:40 PM MST (9/25) 1:55 AM MST (9/25)
Length of Visible Light 12h 51m
Length of Day
12h 01m
Waxing Gibbous, 81% of the Moon is Illuminated
Sep 25
Waxing Gibbous
Sep 29
Full
Oct 8
Last Quarter
Oct 15
New
Oct 21
First Quarter

Hourly Weather History & Observations

Time (MST) Temp. Dew Point Humidity Pressure Visibility Wind Dir Wind Speed Gust Speed Precip Events Conditions
12:53 AM 57.9 °F 37.9 °F 47% 29.84 in 10.0 mi SSW 4.6 mph - N/A   Clear
1:53 AM 57.0 °F 37.0 °F 47% 29.85 in 10.0 mi Calm Calm - N/A   Clear
2:53 AM 55.9 °F 37.0 °F 49% 29.83 in 10.0 mi South 4.6 mph - N/A   Scattered Clouds
3:53 AM 55.0 °F 37.0 °F 51% 29.82 in 10.0 mi South 3.5 mph - N/A   Clear
4:53 AM 54.0 °F 37.0 °F 53% 29.82 in 10.0 mi Calm Calm - N/A   Clear
5:53 AM 54.0 °F 36.0 °F 51% 29.82 in 10.0 mi Calm Calm - N/A   Clear
6:53 AM 54.0 °F 37.0 °F 53% 29.85 in 10.0 mi Calm Calm - N/A   Clear
7:53 AM 63.0 °F 37.0 °F 38% 29.85 in 10.0 mi Calm Calm - N/A   Clear
8:53 AM 71.1 °F 37.0 °F 29% 29.85 in 10.0 mi Calm Calm - N/A   Clear
9:53 AM 73.9 °F 32.0 °F 21% 29.85 in 10.0 mi SSW 9.2 mph - N/A   Clear
10:53 AM 75.9 °F 33.1 °F 21% 29.83 in 10.0 mi South 9.2 mph - N/A   Clear
11:53 AM 77.0 °F 30.2 °F 18% 30.04 in 10.0 mi West 11.5 mph - N/A   Clear
12:53 PM 78.1 °F 33.1 °F 19% 29.81 in 10.0 mi Variable 6.9 mph 17.3 mph N/A   Clear
1:53 PM 80.1 °F 30.9 °F 17% 29.79 in 10.0 mi West 10.4 mph 25.3 mph N/A   Clear
2:53 PM 79.0 °F 32.0 °F 18% 29.79 in 10.0 mi WSW 15.0 mph 20.7 mph N/A   Partly Cloudy
3:53 PM 79.0 °F 32.0 °F 18% 29.79 in 10.0 mi SW 13.8 mph 21.9 mph N/A   Partly Cloudy
4:53 PM 77.0 °F 32.0 °F 19% 29.79 in 10.0 mi WSW 11.5 mph 19.6 mph N/A   Partly Cloudy
5:53 PM 73.9 °F 30.9 °F 21% 29.81 in 10.0 mi WSW 9.2 mph - N/A   Partly Cloudy
6:53 PM 70.0 °F 33.1 °F 26% 29.83 in 10.0 mi SW 4.6 mph - N/A   Clear
7:53 PM 64.4 °F 33.8 °F 32% 30.03 in 10.0 mi SSW 5.8 mph - N/A   Clear
8:53 PM 61.0 °F 36.0 °F 39% 29.84 in 10.0 mi South 6.9 mph - N/A   Clear
9:53 PM 57.2 °F 35.6 °F 44% 30.05 in 10.0 mi SSW 5.8 mph - N/A   Clear
10:53 PM 57.0 °F 34.0 °F 42% 29.84 in 10.0 mi South 8.1 mph - N/A   Clear
11:53 PM 57.0 °F 33.1 °F 40% 29.85 in 10.0 mi South 8.1 mph - N/A   Clear